Temperature
9 10 9 9 9 10 9 9 9 9 9 9 9 9 9 9 8 7 7 6 6 6 6 6 6 7 7 7 7 7 8 8 7 7 7 8 8 8 8 8 8 8 8 8
8 10 9 9 9 9 9 10 10 9 9 9 9 9 9 8 8 7 6 6 6 6 6 6 6 6 6 6 6 7 7 7 7 7 7 7 7 7 7 7 7 7 7 7
8 9 9 8 9 9 9 10 10 9 9 9 8 8 8 8 7 6 6 5 5 5 5 5 5 6 6 6 6 6 6 6 6 6 6 6 6 6 6 6 6 6 6 6
7 8 7 8 9 10 10 10 10 9 9 8 8 8 7 7 6 5 5 5 5 5 5 5 5 5 5 5 5 5 5 5 5 5 5 5 5 5 5 5 5 5 5 5
7 7 8 8 9 9 9 9 9 9 8 8 7 7 6 6 6 5 5 4 4 4 5 5 5 5 5 5 5 5 5 4 4 4 4 4 4 4 4 4 4 4 4 5
7 7 8 9 8 9 9 8 9 9 8 8 7 5 5 5 5 5 4 4 4 4 4 4 4 4 4 4 4 4 4 4 4 4 3 3 3 3 3 4 4 4 4 4
6 7 8 8 8 8 7 7 8 9 8 7 6 5 5 5 4 4 4 4 4 4 4 4 3 3 3 3 3 3 3 3 3 3 3 3 3 3 3 3 3 3 3 3
6 6 7 7 7 7 7 8 8 8 7 7 6 5 5 4 4 4 4 3 3 3 3 3 3 3 3 3 2 2 2 2 2 2 2 2 2 2 2 2 2 2 2 2
7 7 7 8 8 7 8 7 7 7 6 6 5 4 4 4 3 3 3 3 3 2 2 2 2 2 2 2 2 2 2 1 1 1 1 1 1 1 1 1 1 1 2 2
6 7 8 8 7 7 7 7 6 6 6 5 5 4 4 3 3 3 3 2 2 2 2 2 1 1 1 1 1 1 1 1 1 0 0 0 0 0 0 0 0 1 1 1
6 7 8 8 7 7 6 6 6 5 5 5 4 4 3 3 3 3 2 2 2 1 1 1 1 0 0 0 -0 -0 -0 -0 -0 -0 -0 -0 -0 -0 -0 -0 -0 -0 -0 -0
6 7 6 7 8 7 6 6 5 5 4 4 4 4 3 3 2 2 2 2 1 1 1 0 0 -0 -0 -1 -1 -1 -1 -1 -1 -1 -1 -1 -1 -1 -1 -1 -1 -1 -1 -1
9 9 8 8 7 7 6 6 5 5 5 4 4 3 3 2 2 2 1 1 1 0 0 -0 -0 -1 -1 -1 -1 -2 -2 -2 -2 -2 -2 -2 -2 -2 -2 -1 -1 -1 -1 -1
8 7 7 7 6 6 6 5 5 5 4 4 3 3 3 2 2 1 1 1 0 0 -0 -1 -1 -1 -1 -2 -2 -2 -2 -2 -3 -3 -3 -3 -3 -3 -2 -2 -2 -2 -2 -2
7 7 6 6 6 5 5 5 4 4 3 3 3 3 2 2 2 1 1 0 0 -0 -0 -1 -1 -1 -2 -2 -2 -2 -3 -3 -3 -3 -3 -3 -3 -3 -3 -3 -3 -3 -2 -2
5 5 5 5 5 5 4 4 4 4 3 3 3 2 2 2 1 1 0 0 -0 -0 -1 -1 -1 -2 -2 -2 -3 -3 -3 -3 -4 -4 -4 -4 -4 -4 -4 -3 -3 -3 -3 -3
4 4 4 4 4 4 4 4 4 3 3 3 2 2 1 1 1 1 0 -0 -1 -1 -1 -2 -2 -2 -3 -3 -3 -3 -4 -4 -4 -4 -4 -4 -4 -4 -4 -4 -4 -4 -4 -4
5 6 5 5 5 4 4 3 3 3 3 2 2 2 1 1 0 0 -0 -1 -1 -1 -2 -2 -3 -3 -3 -3 -3 -4 -4 -4 -5 -5 -5 -5 -5 -5 -5 -5 -5 -5 -4 -4
5 4 4 4 4 4 4 3 3 2 2 2 2 1 1 0 -0 -0 -1 -1 -1 -2 -2 -3 -3 -3 -3 -4 -4 -4 -5 -5 -5 -5 -5 -5 -5 -5 -5 -5 -5 -5 -5 -5
4 4 4 4 3 3 3 3 2 2 2 2 1 1 0 -0 -1 -1 -1 -2 -2 -3 -3 -3 -3 -4 -4 -4 -4 -5 -5 -5 -6 -6 -6 -6 -6 -6 -6 -6 -6 -6 -5 -5
3 4 3 3 3 3 3 2 2 2 2 1 1 0 -0 -1 -1 -1 -2 -2 -2 -3 -3 -4 -4 -4 -4 -5 -5 -5 -6 -6 -6 -6 -6 -6 -6 -6 -6 -6 -6 -6 -6 -6
3 3 3 3 3 2 2 2 2 1 1 1 0 -0 -1 -1 -1 -2 -2 -3 -3 -4 -4 -4 -4 -5 -5 -5 -6 -6 -6 -6 -6 -7 -7 -7 -7 -7 -7 -7 -7 -7 -6 -6
3 3 3 2 2 2 2 1 1 1 1 0 -0 -1 -1 -1 -2 -2 -3 -3 -4 -4 -4 -4 -5 -5 -6 -6 -6 -6 -7 -7 -7 -7 -7 -7 -7 -7 -7 -7 -7 -7 -7 -7
2 2 2 2 2 1 1 1 0 0 -0 -0 -1 -1 -2 -2 -2 -3 -3 -4 -4 -4 -5 -5 -5 -6 -6 -6 -6 -7 -7 -7 -7 -7 -8 -7 -8 -8 -7 -7 -7 -7 -7 -7
2 2 2 1 1 1 1 0 -0 -0 -1 -1 -2 -2 -2 -3 -3 -4 -4 -4 -5 -5 -5 -5 -6 -6 -6 -7 -7 -7 -7 -8 -8 -8 -8 -8 -8 -8 -8 -8 -8 -8 -7 -7
2 1 1 1 1 1 0 -0 -1 -1 -1 -2 -2 -3 -3 -3 -4 -4 -5 -5 -5 -5 -6 -6 -6 -7 -7 -7 -7 -8 -8 -8 -8 -8 -8 -8 -8 -8 -8 -8 -8 -8 -8 -8
1 1 1 0 0 -0 -0 -1 -1 -1 -2 -2 -3 -3 -4 -4 -4 -5 -5 -5 -6 -6 -6 -7 -7 -7 -7 -8 -8 -8 -8 -8 -9 -9 -9 -9 -8 -8 -8 -8 -8 -8 -8 -8
Wind_Speed
3 2 2 2 3 3 3 2 2 5 6 5 5 6 6 6 7 8 9 9 9 8 8 8 8 7 7 7 7 6 6 6 5 4 4 3 2 2 1 1 2 2 3 4
2 1 1 2 2 1 1 1 3 4 4 5 6 6 6 7 7 8 8 8 8 8 8 8 7 7 6 6 6 5 5 5 5 5 4 4 3 2 2 1 2 2 3 4
1 2 3 2 1 1 2 2 1 2 4 6 6 6 5 5 6 7 7 7 8 7 7 7 7 7 6 6 5 5 5 5 5 5 4 4 3 3 3 3 2 3 3 4
2 3 2 1 2 2 2 1 2 4 5 6 6 5 5 6 6 6 6 6 6 6 6 6 6 6 6 6 6 6 5 5 5 5 5 4 4 4 4 3 3 4 4 4
1 3 3 3 2 1 1 1 3 4 5 5 5 4 4 6 6 6 6 5 5 5 5 6 6 6 6 6 6 6 6 6 6 6 6 5 5 5 4 4 4 4 4 5
1 2 2 2 4 2 1 2 3 5 6 6 4 2 1 4 6 6 6 4 4 5 5 6 6 6 6 6 7 7 7 7 6 6 6 6 6 6 5 5 5 4 5 5
3 3 2 3 4 2 2 3 4 5 6 5 3 3 5 6 5 5 4 4 4 4 4 5 6 6 6 6 6 7 7 7 7 6 6 6 6 5 5 5 5 5 6 6
3 4 5 5 5 3 2 4 4 5 5 6 6 6 5 5 4 3 2 3 3 3 4 4 5 5 5 6 6 6 7 7 7 7 7 6 6 5 5 5 6 6 6 6
4 4 2 5 3 3 3 4 4 4 5 6 5 4 4 4 3 2 2 2 3 3 4 4 5 5 5 6 7 7 7 7 7 7 7 6 6 6 5 5 5 5 5 6
4 4 5 6 5 4 3 4 5 5 6 5 5 4 3 2 2 1 1 1 2 3 4 4 4 5 5 6 7 7 8 8 7 7 7 7 6 5 5 5 5 5 5 5
5 4 3 6 8 7 6 6 6 5 5 5 4 4 3 2 1 1 0 1 1 2 3 4 5 5 5 5 6 7 8 8 8 7 7 7 6 6 6 6 6 6 5 5
7 6 6 5 7 9 8 7 7 6 5 4 4 4 2 2 1 1 0 1 1 3 4 5 5 5 5 5 5 6 7 7 7 7 7 6 7 7 8 9 12 12 11 9
4 2 3 3 5 7 7 7 7 7 6 5 4 3 3 2 1 1 1 1 2 3 4 5 5 5 5 5 5 6 7 7 7 7 7 7 7 7 8 8 9 11 12 12
4 4 3 4 5 6 7 7 6 6 5 5 4 3 2 2 1 1 2 2 2 3 4 4 5 5 5 5 6 7 7 7 7 6 6 7 7 7 7 8 8 7 8 11
6 5 5 5 6 6 7 7 6 6 5 4 4 3 3 2 2 3 2 1 2 3 4 4 5 6 5 5 6 7 7 6 6 6 6 7 7 7 7 7 7 7 7 7
6 5 6 7 8 8 7 7 7 7 6 5 4 4 3 2 2 2 1 1 2 4 5 5 6 6 5 6 7 6 6 9 9 7 7 7 6 7 7 7 7 7 6 6
8 8 8 8 9 9 9 8 7 6 6 5 5 4 3 1 2 3 3 2 3 5 5 5 5 5 5 6 6 6 6 8 10 8 6 7 7 7 6 6 7 7 6 7
9 9 9 9 9 9 8 7 6 6 5 5 4 4 3 3 3 3 3 3 4 5 5 5 5 5 6 6 6 5 6 7 7 7 7 6 7 6 6 6 7 8 7 7
7 7 8 8 8 8 8 7 6 6 5 5 5 4 3 3 3 2 2 3 4 6 5 4 7 6 6 7 7 5 6 7 7 7 7 9 8 6 6 6 7 7 6 6
6 6 7 7 7 7 7 7 7 6 5 5 4 3 2 2 2 2 3 4 4 4 4 5 5 5 6 7 8 6 7 7 7 7 7 6 6 6 6 6 6 6 6 5
6 7 7 7 6 6 7 7 7 6 5 5 4 3 2 2 2 2 3 4 4 3 4 7 5 5 5 7 9 6 6 7 7 7 7 6 6 6 6 6 6 6 6 5
6 6 7 8 7 6 5 6 6 6 5 4 3 2 1 2 2 3 4 4 3 5 4 4 4 7 10 11 6 6 7 7 7 6 6 6 6 6 6 6 6 6 5 5
5 6 7 7 7 7 6 5 5 5 5 4 3 3 2 2 2 2 4 2 2 6 5 5 8 12 14 8 6 6 7 7 7 7 6 6 6 5 5 6 5 5 5 4
5 6 6 6 7 7 6 5 4 4 4 3 3 3 2 1 2 2 2 4 6 8 5 8 12 13 12 6 6 6 7 7 7 7 7 6 6 5 5 5 5 5 4 5
6 6 6 7 7 5 5 5 5 4 3 2 2 2 2 2 2 2 2 3 6 7 5 8 12 12 7 5 6 6 6 7 7 7 6 6 6 5 5 5 5 5 4 4
5 5 5 5 5 5 5 5 4 3 3 2 2 1 1 0 1 1 2 3 5 7 6 5 6 7 5 6 6 7 6 7 8 7 6 6 6 6 5 5 6 5 4 4
5 5 4 4 3 4 4 4 4 4 3 3 2 1 1 0 1 2 3 3 4 4 4 5 5 5 5 6 6 6 6 6 6 6 6 5 5 5 5 6 5 5 4 4
Wind_Direction
11 9 7 0 355 11 35 28 77 97 100 100 92 84 78 71 66 60 56 51 46 41 36 34 31 27 27 21 16 14 17 17 12 10 12 14 5 354 318 235 221 207 202 198
328 344 356 342 331 328 13 56 95 94 89 98 90 76 66 61 61 56 50 43 39 36 32 26 20 20 20 16 10 12 15 9 5 4 3 359 353 342 320 268 234 222 214 206
330 352 324 305 288 215 132 96 112 125 119 106 94 80 68 62 60 56 49 41 36 31 27 21 14 11 9 6 4 9 9 3 358 356 351 342 334 325 303 281 257 243 230 218
326 341 313 171 49 35 118 118 99 104 110 105 99 87 70 72 71 60 49 40 32 26 20 14 9 4 4 5 3 3 3 358 355 351 341 333 323 307 295 285 268 254 243 230
318 289 254 155 149 126 153 175 149 143 128 112 106 90 64 64 72 68 55 44 32 24 16 10 5 0 6 4 360 1 359 354 348 340 329 321 310 300 293 284 272 259 249 234
296 296 281 127 124 84 52 205 157 143 140 137 137 149 155 90 78 67 56 39 25 14 10 6 359 3 9 1 358 354 349 341 331 323 315 308 302 299 296 287 273 258 252 242
251 267 278 127 133 138 168 192 132 128 128 131 132 117 115 94 79 70 56 35 22 15 7 357 357 4 1 356 348 338 334 328 323 318 309 300 295 292 291 286 279 264 256 251
202 230 244 147 150 184 165 129 113 111 114 116 111 106 105 100 93 81 57 32 19 9 357 349 353 355 349 341 329 328 326 322 319 316 312 308 301 294 287 281 278 268 257 253
208 210 159 168 153 123 111 129 124 121 115 121 124 123 120 120 117 97 59 26 11 359 347 345 350 350 339 329 331 330 326 322 319 317 313 307 299 292 290 280 273 270 260 254
277 243 195 185 168 153 137 133 126 126 126 129 135 136 136 133 129 118 67 16 1 351 339 333 338 338 331 330 331 327 322 319 317 316 313 309 302 291 283 279 276 273 269 265
250 249 209 209 192 176 160 143 135 131 132 139 142 148 150 155 155 144 50 348 344 327 317 317 324 325 327 333 332 324 319 319 318 315 310 307 301 295 290 281 282 285 278 268
223 211 191 209 183 168 165 168 161 154 151 145 152 160 156 163 157 149 274 312 315 308 308 310 315 317 321 327 328 322 317 318 316 313 310 306 305 304 289 283 292 290 283 275
215 134 130 125 143 154 162 165 161 162 163 160 157 152 152 158 162 197 255 282 287 294 299 306 310 312 317 322 320 312 307 307 308 307 308 308 306 305 305 302 291 287 287 284
169 136 160 179 175 163 156 153 149 151 158 156 152 147 148 165 204 238 258 273 286 295 298 304 308 307 314 320 315 306 302 300 301 300 304 305 303 301 299 302 305 303 293 286
198 190 185 163 150 150 145 145 152 163 163 155 151 161 173 194 229 250 266 292 308 300 299 303 303 304 314 318 312 306 304 301 301 301 301 298 297 297 296 296 294 297 300 298
186 175 164 164 168 165 161 168 177 181 175 172 173 181 185 196 231 258 270 279 290 290 292 294 295 303 314 313 309 305 301 301 305 302 300 299 298 297 297 297 297 296 295 296
176 190 188 187 186 184 182 183 183 179 174 175 177 168 164 190 251 268 273 272 273 279 285 289 295 307 310 307 306 303 302 304 303 301 297 297 296 296 296 297 297 296 294 294
194 195 188 183 182 183 184 179 173 167 169 167 153 155 180 212 242 263 277 293 297 294 288 286 297 312 309 307 306 301 302 302 302 300 299 298 297 294 295 294 295 296 298 301
184 181 178 177 174 174 174 168 162 157 150 145 154 179 204 224 244 270 291 295 293 295 302 315 328 323 309 307 311 301 301 300 300 299 297 299 301 297 297 297 296 297 300 301
172 165 160 157 154 156 157 152 146 144 145 145 152 174 211 237 251 272 282 274 266 273 300 324 324 309 305 307 313 303 301 299 298 299 300 298 298 298 299 300 302 302 301 303
162 156 151 148 145 143 144 144 145 149 149 152 165 190 217 247 263 271 280 284 289 316 333 329 320 306 307 313 314 304 299 298 298 298 299 299 299 300 301 302 304 307 308 308
160 156 152 147 144 142 139 138 141 143 145 152 159 167 203 255 272 276 264 260 291 327 334 316 308 311 317 318 308 301 296 296 297 296 295 295 296 298 300 303 304 306 307 307
155 154 151 150 148 141 131 133 138 145 155 163 170 184 213 241 250 267 288 291 319 325 323 304 310 316 320 319 307 302 300 299 299 299 298 299 298 296 297 301 302 305 308 309
149 147 144 137 132 136 146 151 143 144 153 164 178 186 199 241 266 246 265 313 321 319 312 309 316 319 322 318 308 306 304 303 301 299 298 297 298 298 297 298 300 303 305 306
146 142 142 145 152 159 155 146 143 152 160 175 188 191 194 202 237 283 301 301 312 317 309 313 318 321 323 309 308 307 307 303 303 304 303 304 303 303 302 300 297 298 301 302
151 154 158 160 155 149 149 154 162 168 169 180 196 192 186 214 278 292 295 297 301 312 311 306 310 315 313 310 308 307 307 309 311 310 306 305 304 303 302 303 299 295 293 293
139 141 141 139 142 149 152 160 167 174 177 181 198 193 192 243 281 292 298 302 307 309 307 307 308 309 308 309 308 308 307 307 307 308 307 303 301 301 301 301 300 297 292 287
Height
1451 1448 1449 1449 1448 1447 1448 1447 1452 1452 1454 1456 1457 1457 1458 1458 1458 1458 1458 1458 1457 1457 1456 1456 1455 1455 1454 1454 1454 1453 1453 1452 1452 1452 1452 1452 1452 1452 1452 1452 1453 1453 1453 1453
1453 1448 1449 1451 1449 1448 1448 1448 1450 1452 1456 1456 1457 1459 1459 1460 1460 1460 1461 1460 1460 1459 1458 1457 1457 1456 1455 1454 1454 1453 1452 1452 1451 1451 1450 1450 1449 1449 1449 1449 1449 1449 1449 1450
1456 1450 1450 1455 1450 1449 1449 1449 1450 1454 1457 1457 1459 1460 1462 1462 1463 1463 1463 1462 1462 1461 1460 1459 1458 1457 1455 1455 1454 1453 1452 1451 1450 1449 1449 1448 1447 1447 1446 1446 1445 1445 1445 1445
1458 1456 1462 1454 1448 1448 1449 1450 1450 1452 1455 1457 1460 1462 1463 1464 1464 1464 1464 1464 1463 1462 1461 1460 1458 1457 1456 1455 1453 1452 1451 1450 1449 1448 1447 1446 1445 1444 1443 1442 1441 1441 1441 1441
1461 1459 1453 1451 1450 1449 1451 1452 1451 1453 1456 1458 1460 1462 1464 1464 1464 1465 1464 1464 1463 1462 1461 1460 1459 1457 1456 1454 1453 1451 1450 1448 1447 1446 1444 1443 1441 1440 1439 1438 1437 1436 1436 1436
1460 1461 1456 1451 1450 1450 1453 1454 1451 1452 1455 1457 1459 1464 1465 1464 1464 1464 1464 1464 1463 1462 1461 1460 1459 1457 1455 1453 1452 1450 1448 1447 1445 1444 1442 1440 1438 1436 1435 1433 1432 1431 1431 1430
1463 1461 1454 1450 1450 1452 1457 1456 1451 1452 1454 1457 1459 1462 1463 1463 1464 1464 1464 1463 1463 1462 1460 1459 1458 1456 1454 1452 1451 1449 1447 1445 1443 1441 1439 1437 1434 1432 1430 1429 1427 1426 1425 1424
1460 1461 1459 1450 1450 1452 1452 1451 1451 1453 1455 1457 1459 1461 1462 1463 1463 1464 1463 1463 1462 1460 1459 1458 1456 1454 1452 1451 1449 1447 1445 1442 1440 1438 1436 1433 1431 1428 1426 1424 1422 1420 1419 1418
1453 1454 1448 1447 1448 1449 1449 1450 1452 1453 1454 1456 1458 1460 1461 1462 1462 1462 1462 1461 1460 1459 1458 1456 1455 1453 1451 1449 1447 1444 1442 1440 1437 1435 1432 1430 1427 1424 1422 1420 1418 1416 1415 1413
1449 1445 1444 1445 1446 1447 1448 1450 1451 1452 1454 1455 1457 1458 1459 1460 1460 1460 1460 1459 1458 1457 1456 1454 1453 1451 1449 1447 1444 1442 1439 1436 1434 1431 1428 1426 1423 1421 1418 1416 1414 1412 1410 1409
1447 1443 1442 1442 1443 1444 1446 1448 1449 1451 1452 1453 1455 1456 1457 1457 1458 1458 1457 1457 1456 1455 1453 1452 1450 1448 1446 1444 1441 1438 1435 1433 1430 1427 1424 1422 1419 1417 1414 1412 1411 1408 1406 1405
1442 1436 1438 1438 1439 1441 1443 1445 1447 1448 1450 1452 1453 1454 1454 1455 1455 1455 1455 1454 1453 1452 1450 1449 1447 1445 1443 1440 1438 1435 1432 1429 1426 1424 1421 1418 1415 1412 1409 1408 1405 1403 1401 1400
1432 1433 1434 1434 1436 1438 1440 1442 1444 1446 1447 1449 1450 1451 1452 1452 1452 1452 1452 1451 1450 1449 1447 1445 1443 1441 1439 1437 1434 1431 1428 1425 1423 1420 1417 1414 1411 1407 1404 1402 1400 1398 1396 1394
1429 1430 1431 1432 1434 1436 1437 1439 1442 1443 1445 1446 1447 1448 1449 1449 1449 1449 1449 1448 1447 1445 1443 1442 1440 1437 1435 1433 1430 1427 1424 1421 1419 1416 1413 1410 1407 1404 1401 1398 1395 1392 1391 1389
1425 1427 1428 1429 1431 1433 1435 1437 1438 1440 1442 1443 1444 1445 1446 1446 1446 1446 1445 1444 1443 1441 1440 1438 1436 1434 1431 1429 1426 1423 1420 1417 1414 1411 1409 1406 1403 1400 1397 1394 1391 1388 1386 1385
1421 1422 1424 1425 1427 1429 1431 1433 1435 1436 1438 1440 1441 1442 1442 1443 1443 1442 1442 1440 1439 1437 1436 1434 1432 1430 1427 1424 1422 1419 1416 1413 1410 1407 1404 1401 1399 1396 1393 1390 1388 1385 1383 1381
1416 1417 1419 1421 1422 1425 1427 1429 1431 1433 1435 1436 1438 1439 1439 1439 1439 1439 1438 1437 1436 1434 1432 1430 1428 1426 1423 1421 1418 1414 1411 1409 1406 1403 1400 1398 1395 1392 1389 1387 1384 1382 1379 1377
1410 1412 1414 1416 1418 1421 1423 1426 1428 1430 1432 1433 1434 1435 1435 1436 1435 1435 1434 1433 1431 1430 1429 1426 1424 1422 1419 1417 1414 1410 1407 1404 1402 1399 1396 1394 1391 1388 1386 1383 1380 1378 1375 1374
1406 1408 1410 1413 1415 1418 1420 1422 1424 1427 1429 1430 1431 1432 1432 1432 1432 1431 1430 1429 1427 1426 1424 1422 1420 1418 1415 1412 1409 1406 1403 1400 1398 1395 1393 1390 1387 1385 1382 1380 1377 1375 1372 1370
1402 1405 1407 1410 1412 1415 1417 1419 1421 1423 1425 1427 1427 1428 1428 1428 1428 1427 1426 1425 1424 1422 1420 1418 1416 1413 1411 1408 1405 1402 1400 1397 1394 1391 1389 1386 1384 1381 1379 1376 1374 1371 1369 1367
1399 1402 1404 1407 1409 1412 1414 1416 1418 1420 1422 1423 1424 1424 1425 1425 1424 1423 1422 1420 1420 1418 1416 1414 1411 1409 1406 1404 1401 1398 1396 1393 1390 1388 1385 1383 1380 1378 1375 1373 1371 1368 1366 1365
1397 1399 1402 1404 1407 1409 1412 1414 1416 1417 1419 1420 1420 1421 1421 1420 1420 1419 1418 1417 1415 1414 1412 1410 1407 1405 1402 1399 1396 1394 1391 1389 1386 1384 1381 1379 1377 1374 1372 1370 1368 1366 1364 1362
1396 1398 1400 1402 1404 1407 1409 1411 1413 1414 1415 1416 1417 1417 1417 1417 1416 1415 1414 1413 1411 1409 1407 1405 1403 1400 1398 1395 1392 1389 1387 1384 1382 1380 1378 1375 1373 1371 1369 1367 1365 1363 1361 1360
1394 1396 1399 1401 1403 1405 1406 1408 1410 1411 1412 1413 1413 1413 1413 1413 1412 1412 1410 1409 1407 1405 1403 1401 1398 1396 1393 1390 1388 1385 1382 1380 1378 1376 1374 1371 1369 1367 1366 1364 1362 1360 1358 1357
1393 1395 1397 1398 1400 1402 1404 1405 1407 1408 1409 1409 1410 1410 1409 1409 1409 1408 1406 1405 1403 1401 1399 1396 1394 1392 1389 1386 1383 1381 1378 1376 1374 1372 1369 1367 1366 1364 1362 1360 1359 1357 1356 1354
1391 1393 1394 1396 1398 1400 1401 1402 1403 1404 1405 1405 1406 1406 1406 1405 1404 1403 1402 1400 1398 1396 1394 1392 1390 1387 1385 1382 1379 1377 1374 1372 1370 1368 1366 1364 1362 1360 1358 1357 1355 1354 1353 1351
1389 1391 1392 1394 1395 1397 1398 1399 1400 1401 1402 1402 1402 1402 1402 1401 1400 1399 1398 1396 1394 1392 1390 1387 1385 1383 1380 1378 1375 1373 1371 1368 1366 1364 1362 1360 1358 1356 1355 1353 1352 1350 1349 1348